Forum Crazy Orc - Centre de statistiques

Statistiques générales

Total des membres:
966
Total des messages:
96 377
Total des sujets:
4 001
Total des catégories:
4
Membres en ligne:
105
Connexions simultanées:
808 - 21 janvier 2020 à 20:55:59
En ligne aujourd'hui:
126
Total des pages vues:
32 121 506
Moyenne des inscriptions par jour:
0,25
Moyenne des messages par jour:
25,05
Moyenne des sujets par jour:
1,11
Total des sections:
40
Dernier membre:
Safwane
Moyenne d'utilisateurs connectés par jour:
46,90
Ratio hommes/femmes:
7.1:1
Pages vues en moyenne par jour:
5 740,08

Top lanceurs de sujets

nunch
600
ManuDevil
287
Morithil
271
GroumpH
246
Scratchy
132
MAO
110
LeDupontesque
105
jules
99
snake
92
CCCP
85

Temps de connexion cumulé

Mandy
133j 19h 59m
GroumpH
112j 9h 9m
CCCP
85j 22h 35m
Nukeflow
73j 8h 19m
ManuDevil
67j 7h 55m
Felipe
61j 12h 19m
dao
56j 17h 58m
nunch
49j 46m
Rh
42j 23h 32m
Patate
41j 21h 15m

Historique du forum (basé sur l'heure interne du forum)

Résumé annuel Nouveaux sujets Nouveaux messages Nouveaux membres Connexions simultanées Pages vues
* 2022 102 605 54 130 1 867 773
Juillet 2022 0 3 1 130 20 021
Juin 2022 14 76 4 62 333 112
Mai 2022 16 118 8 91 339 244
Avril 2022 18 133 12 61 254 691
Mars 2022 15 123 8 65 281 935
Février 2022 17 84 9 58 314 588
Janvier 2022 22 68 12 70 324 182
2022-01-01 0 0 0 39 10 922
2022-01-02 4 6 0 38 11 523
2022-01-03 0 2 0 51 9 782
2022-01-04 0 4 0 43 7 524
2022-01-05 1 2 1 35 10 245
2022-01-06 2 2 0 36 8 915
2022-01-07 0 0 0 55 8 448
2022-01-08 0 1 1 38 9 864
2022-01-09 0 0 0 42 10 293
2022-01-10 3 4 1 47 13 227
2022-01-11 0 0 0 50 10 507
2022-01-12 0 1 0 70 33 842
2022-01-13 0 3 0 43 9 184
2022-01-14 0 2 0 43 12 187
2022-01-15 0 1 0 39 10 512
2022-01-16 1 2 2 38 12 767
2022-01-17 1 4 2 45 10 200
2022-01-18 0 1 0 42 11 009
2022-01-19 0 2 0 38 9 173
2022-01-20 1 2 1 50 7 081
2022-01-21 0 0 0 44 5 118
2022-01-22 0 2 0 51 8 349
2022-01-23 1 4 1 53 6 097
2022-01-24 6 8 0 42 9 074
2022-01-25 0 0 0 52 9 326
2022-01-26 0 2 0 67 7 956
2022-01-27 1 6 1 49 9 815
2022-01-28 0 1 0 58 10 648
2022-01-29 1 3 1 37 10 936
2022-01-30 0 3 1 37 10 004
2022-01-31 0 0 0 41 9 654
* 2021 129 756 53 338 4 376 522
Décembre 2021 8 37 0 129 661 064
2021-12-01 0 1 0 86 10 724
2021-12-02 0 6 0 91 7 815
2021-12-03 0 0 0 93 7 911
2021-12-04 0 5 0 92 10 027
2021-12-05 2 2 0 86 10 097
2021-12-06 0 0 0 129 7 479
2021-12-07 0 0 0 101 8 162
2021-12-08 0 2 0 42 6 778
2021-12-09 0 0 0 40 7 532
2021-12-10 4 6 0 55 7 151
2021-12-11 0 1 0 42 9 757
2021-12-12 0 0 0 53 12 585
2021-12-13 0 2 0 48 10 751
2021-12-14 0 0 0 40 13 058
2021-12-15 0 1 0 35 11 053
2021-12-16 0 3 0 50 9 613
2021-12-17 0 1 0 47 11 104
2021-12-18 0 0 0 42 9 597
2021-12-19 0 2 0 48 9 257
2021-12-20 2 2 0 45 10 553
2021-12-21 0 0 0 47 10 988
2021-12-22 0 0 0 44 14 554
2021-12-23 0 1 0 47 43 880
2021-12-24 0 1 0 46 49 317
2021-12-25 0 0 0 47 49 735
2021-12-26 0 0 0 44 48 100
2021-12-27 0 1 0 41 54 117
2021-12-28 0 0 0 37 47 893
2021-12-29 0 0 0 38 54 768
2021-12-30 0 0 0 38 48 213
2021-12-31 0 0 0 38 48 495
Novembre 2021 13 99 4 153 262 314
Octobre 2021 20 208 15 159 298 103
Septembre 2021 24 171 10 280 285 455
2021-09-01 0 3 2 36 8 640
2021-09-02 4 5 0 37 5 800
2021-09-03 0 10 1 36 5 156
2021-09-04 0 2 0 36 6 972
2021-09-05 0 1 0 43 4 981
2021-09-06 1 11 0 41 6 661
2021-09-07 1 12 0 46 10 031
2021-09-08 1 4 0 41 12 326
2021-09-09 0 5 0 49 26 895
2021-09-10 0 6 1 59 9 918
2021-09-11 0 3 0 44 5 933
2021-09-12 1 6 1 39 4 295
2021-09-13 1 6 0 44 7 745
2021-09-14 3 10 0 47 10 087
2021-09-15 3 18 1 280 10 394
2021-09-16 1 7 1 161 10 361
2021-09-17 0 4 0 190 12 432
2021-09-18 0 2 0 188 15 978
2021-09-19 0 2 0 253 13 663
2021-09-20 0 1 0 200 15 111
2021-09-21 1 3 1 125 8 590
2021-09-22 2 6 0 160 8 539
2021-09-23 0 0 1 147 9 848
2021-09-24 1 4 0 66 9 262
2021-09-25 1 6 0 105 6 269
2021-09-26 0 7 1 111 9 599
2021-09-27 1 7 0 103 8 348
2021-09-28 2 15 0 77 7 864
2021-09-29 0 5 0 118 7 060
2021-09-30 0 0 0 102 6 697
Août 2021 11 33 7 73 231 609
Juillet 2021 6 8 2 81 305 173
Juin 2021 17 31 2 135 311 168
2021-06-01 6 7 0 65 11 550
2021-06-02 0 0 0 77 12 253
2021-06-03 0 1 0 103 12 092
2021-06-04 0 0 0 93 8 171
2021-06-05 0 0 0 104 7 555
2021-06-06 0 0 0 95 7 530
2021-06-07 0 0 0 79 8 779
2021-06-08 1 3 0 79 10 509
2021-06-09 0 1 0 90 8 325
2021-06-10 0 0 0 88 8 468
2021-06-11 0 0 0 93 9 960
2021-06-12 0 1 0 92 10 963
2021-06-13 1 1 1 86 7 407
2021-06-14 0 0 0 105 6 206
2021-06-15 0 0 0 82 32 410
2021-06-16 4 6 0 83 12 753
2021-06-17 0 0 0 96 11 769
2021-06-18 0 2 0 101 7 377
2021-06-19 0 1 0 135 12 899
2021-06-20 0 0 0 131 10 996
2021-06-21 3 4 1 131 11 219
2021-06-22 0 0 0 101 8 997
2021-06-23 0 1 0 93 7 594
2021-06-24 0 0 0 103 9 103
2021-06-25 0 0 0 80 9 706
2021-06-26 0 0 0 79 9 521
2021-06-27 0 0 0 84 11 194
2021-06-28 0 0 0 75 8 473
2021-06-29 2 2 0 83 8 668
2021-06-30 0 1 0 71 8 721
Mai 2021 3 31 4 268 597 777
2021-05-01 0 0 0 119 39 331
2021-05-02 0 0 0 106 59 354
2021-05-03 0 9 1 101 44 504
2021-05-04 0 2 0 125 12 453
2021-05-05 1 2 0 100 11 360
2021-05-06 0 0 0 101 9 692
2021-05-07 0 2 0 106 8 406
2021-05-08 0 0 0 99 174 998
2021-05-09 0 0 1 97 28 918
2021-05-10 1 2 0 97 8 620
2021-05-11 0 1 0 89 11 124
2021-05-12 0 0 0 83 7 881
2021-05-13 0 0 0 118 7 343
2021-05-14 0 2 0 93 7 444
2021-05-15 0 0 0 108 8 389
2021-05-16 0 0 0 88 7 431
2021-05-17 0 0 0 89 8 744
2021-05-18 0 1 0 92 6 838
2021-05-19 0 1 0 268 11 518
2021-05-20 0 0 0 98 21 067
2021-05-21 1 1 0 152 11 521
2021-05-22 0 0 0 146 11 070
2021-05-23 0 0 0 124 9 498
2021-05-24 0 1 0 109 10 311
2021-05-25 0 5 1 112 11 048
2021-05-26 0 0 0 115 7 597
2021-05-27 0 0 0 100 8 270
2021-05-28 0 0 0 70 10 782
2021-05-29 0 1 0 69 7 978
2021-05-30 0 0 1 67 7 768
2021-05-31 0 1 0 47 6 519
Avril 2021 10 51 6 287 308 355
Mars 2021 7 24 1 308 444 900
Février 2021 5 29 2 338 223 056
Janvier 2021 5 34 0 322 447 548
2021-01-01 0 0 0 65 8 853
2021-01-02 0 0 0 61 7 510
2021-01-03 0 0 0 56 8 223
2021-01-04 2 2 0 67 8 142
2021-01-05 0 3 0 56 8 281
2021-01-06 0 4 0 55 5 830
2021-01-07 0 2 0 55 4 092
2021-01-08 0 2 0 53 3 871
2021-01-09 0 0 0 70 5 919
2021-01-10 0 0 0 78 9 200
2021-01-11 1 2 0 66 7 730
2021-01-12 0 1 0 71 7 978
2021-01-13 0 1 0 64 8 287
2021-01-14 0 2 0 80 7 890
2021-01-15 0 0 0 85 9 193
2021-01-16 0 0 0 83 10 085
2021-01-17 0 3 0 81 9 818
2021-01-18 0 5 0 82 10 941
2021-01-19 1 1 0 86 9 009
2021-01-20 0 2 0 322 13 536
2021-01-21 0 1 0 81 24 497
2021-01-22 0 0 0 79 141 457
2021-01-23 0 0 0 85 10 393
2021-01-24 0 0 0 84 11 242
2021-01-25 1 1 0 80 10 151
2021-01-26 0 0 0 93 10 012
2021-01-27 0 1 0 88 10 831
2021-01-28 0 0 0 87 11 541
2021-01-29 0 1 0 81 9 358
2021-01-30 0 0 0 72 23 925
2021-01-31 0 0 0 67 19 753
* 2020 206 1 716 105 808 4 713 463
Décembre 2020 6 38 2 320 310 487
Novembre 2020 12 97 3 352 464 426
Octobre 2020 21 169 7 346 497 422
2020-10-01 4 11 1 121 13 231
2020-10-02 0 15 0 130 15 235
2020-10-03 0 0 1 112 12 703
2020-10-04 3 10 1 119 108 419
2020-10-05 3 15 1 92 60 488
2020-10-06 0 16 0 118 11 489
2020-10-07 1 8 1 121 10 905
2020-10-08 0 9 0 143 14 006
2020-10-09 0 2 0 97 9 716
2020-10-10 1 4 1 94 11 237
2020-10-11 0 2 0 88 10 226
2020-10-12 3 7 0 85 9 874
2020-10-13 1 9 1 89 12 163
2020-10-14 0 11 0 346 16 344
2020-10-15 0 4 0 86 10 037
2020-10-16 0 0 0 90 9 449
2020-10-17 0 0 0 91 10 244
2020-10-18 0 9 0 78 8 796
2020-10-19 1 3 0 75 7 818
2020-10-20 3 9 0 88 7 872
2020-10-21 0 5 0 85 8 220
2020-10-22 0 10 0 87 10 088
2020-10-23 0 2 0 104 13 389
2020-10-24 0 0 0 95 12 852
2020-10-25 0 2 0 96 11 374
2020-10-26 0 1 0 98 10 283
2020-10-27 1 2 0 105 7 650
2020-10-28 0 2 0 107 10 881
2020-10-29 0 0 0 112 13 782
2020-10-30 0 1 0 114 15 295
2020-10-31 0 0 0 111 13 356
Septembre 2020 30 356 15 133 325 183
2020-09-01 1 11 0 132 11 858
2020-09-02 0 7 0 119 11 233
2020-09-03 0 3 0 133 12 311
2020-09-04 0 1 0 107 9 419
2020-09-05 0 5 0 98 9 623
2020-09-06 0 2 0 91 8 360
2020-09-07 2 5 0 89 7 613
2020-09-08 3 18 1 94 7 993
2020-09-09 0 5 0 78 8 983
2020-09-10 2 17 3 79 8 902
2020-09-11 0 17 0 75 7 934
2020-09-12 0 7 1 79 9 406
2020-09-13 2 22 1 85 8 825
2020-09-14 2 20 0 96 9 426
2020-09-15 1 11 1 77 9 576
2020-09-16 2 8 0 91 13 248
2020-09-17 2 16 1 82 11 164
2020-09-18 1 20 1 84 10 275
2020-09-19 1 12 2 84 11 478
2020-09-20 1 7 0 79 12 324
2020-09-21 4 36 2 87 11 686
2020-09-22 1 22 0 87 12 418
2020-09-23 1 18 1 90 14 222
2020-09-24 0 10 0 77 12 651
2020-09-25 0 12 0 83 13 598
2020-09-26 0 7 0 93 10 763
2020-09-27 0 2 0 99 9 820
2020-09-28 2 17 0 117 11 475
2020-09-29 1 8 1 116 13 668
2020-09-30 1 10 0 123 14 931
Août 2020 16 147 7 163 471 897
2020-08-01 0 0 1 125 9 376
2020-08-02 0 0 1 127 10 771
2020-08-03 2 4 0 135 9 364
2020-08-04 0 0 0 163 13 035
2020-08-05 0 5 1 160 20 546
2020-08-06 0 2 0 131 12 711
2020-08-07 0 0 0 119 12 203
2020-08-08 0 0 0 103 12 458
2020-08-09 0 2 0 87 11 220
2020-08-10 0 1 0 81 10 362
2020-08-11 0 1 0 83 14 026
2020-08-12 0 3 0 87 134 172
2020-08-13 0 5 0 103 10 481
2020-08-14 0 3 0 97 13 299
2020-08-15 2 3 0 96 8 890
2020-08-16 3 6 1 82 8 258
2020-08-17 0 11 0 85 9 541
2020-08-18 0 6 0 91 10 678
2020-08-19 0 5 0 84 11 112
2020-08-20 1 15 1 78 11 469
2020-08-21 0 7 0 84 11 326
2020-08-22 0 5 0 83 11 201
2020-08-23 1 3 0 71 10 011
2020-08-24 3 8 0 82 10 392
2020-08-25 0 2 0 95 9 967
2020-08-26 0 5 0 92 10 480
2020-08-27 2 9 0 92 12 374
2020-08-28 1 12 1 95 9 959
2020-08-29 0 9 1 90 9 439
2020-08-30 0 8 0 104 10 776
2020-08-31 1 7 0 137 12 000
Juillet 2020 16 77 2 100 345 760
Juin 2020 17 60 5 127 452 817
Mai 2020 7 22 3 295 321 652
2020-05-01 0 0 1 256 14 023
2020-05-02 1 1 0 203 11 018
2020-05-03 0 0 0 196 11 059
2020-05-04 0 1 0 219 12 362
2020-05-05 0 0 0 118 9 025
2020-05-06 0 0 1 207 9 203
2020-05-07 0 4 0 226 9 310
2020-05-08 0 0 0 247 12 323
2020-05-09 0 2 0 241 11 845
2020-05-10 0 4 0 245 13 234
2020-05-11 0 1 0 238 7 557
2020-05-12 0 1 0 241 9 777
2020-05-13 0 1 0 295 11 812
2020-05-14 6 6 0 249 13 287
2020-05-15 0 0 0 226 13 447
2020-05-16 0 0 0 172 12 505
2020-05-17 0 0 0 120 10 079
2020-05-18 0 0 0 130 10 552
2020-05-19 0 0 0 131 10 117
2020-05-20 0 1 0 107 7 233
2020-05-21 0 0 1 52 7 639
2020-05-22 0 0 0 51 9 754
2020-05-23 0 0 0 57 7 435
2020-05-24 0 0 0 57 7 298
2020-05-25 0 0 0 74 5 034
2020-05-26 0 0 0 82 7 744
2020-05-27 0 0 0 107 11 791
2020-05-28 0 0 0 100 9 031
2020-05-29 0 0 0 104 9 467
2020-05-30 0 0 0 108 15 345
2020-05-31 0 0 0 116 11 346
Avril 2020 10 47 1 189 300 030
2020-04-01 1 10 0 107 11 966
2020-04-02 0 2 0 114 10 310
2020-04-03 0 1 0 103 9 502
2020-04-04 0 2 0 128 9 178
2020-04-05 0 0 0 114 10 662
2020-04-06 4 7 0 109 8 396
2020-04-07 0 3 0 117 8 692
2020-04-08 0 0 0 104 13 455
2020-04-09 0 1 0 114 10 600
2020-04-10 0 0 0 112 7 011
2020-04-11 0 0 0 101 8 460
2020-04-12 1 2 0 120 10 038
2020-04-13 0 1 0 108 11 715
2020-04-14 0 1 0 107 13 383
2020-04-15 0 1 0 93 9 161
2020-04-16 1 2 0 99 8 579
2020-04-17 0 0 0 106 6 755
2020-04-18 0 2 0 96 7 568
2020-04-19 0 0 0 113 5 193
2020-04-20 0 0 0 189 9 427
2020-04-21 0 0 0 183 10 619
2020-04-22 0 1 0 157 9 559
2020-04-23 1 2 0 99 9 058
2020-04-24 0 5 0 99 9 065
2020-04-25 0 0 0 97 8 270
2020-04-26 0 0 0 94 26 246
2020-04-27 0 0 1 93 9 286
2020-04-28 1 2 0 100 8 564
2020-04-29 1 2 0 105 9 760
2020-04-30 0 0 0 120 9 552
Mars 2020 24 253 3 199 467 854
Février 2020 18 171 9 323 281 798
Janvier 2020 29 279 48 808 474 137
2020-01-01 0 12 0 120 10 073
2020-01-02 1 9 0 127 13 456
2020-01-03 3 8 5 120 7 230
2020-01-04 1 7 2 109 7 682
2020-01-05 0 6 2 116 7 700
2020-01-06 2 9 1 122 10 580
2020-01-07 0 2 3 120 7 752
2020-01-08 1 11 3 117 8 845
2020-01-09 2 13 1 115 11 380
2020-01-10 0 6 1 106 9 117
2020-01-11 0 9 0 188 8 366
2020-01-12 3 17 3 120 9 658
2020-01-13 0 10 1 268 9 745
2020-01-14 2 5 3 625 12 117
2020-01-15 0 1 0 587 10 280
2020-01-16 0 15 2 597 12 766
2020-01-17 2 17 3 575 11 348
2020-01-18 0 9 2 108 11 823
2020-01-19 0 8 1 132 7 576
2020-01-20 0 2 0 589 7 895
2020-01-21 0 4 1 808 8 119
2020-01-22 4 9 0 507 11 803
2020-01-23 0 1 1 383 6 222
2020-01-24 1 15 1 244 6 849
2020-01-25 0 2 1 110 7 819
2020-01-26 2 13 2 118 38 722
2020-01-27 0 6 3 116 167 649
2020-01-28 2 11 3 108 7 008
2020-01-29 2 13 1 114 7 552
2020-01-30 0 17 0 111 7 527
2020-01-31 1 12 2 106 9 478
* 2019 246 3 411 313 446 3 308 531
Décembre 2019 18 159 26 446 351 248
Novembre 2019 16 245 33 325 524 135
Octobre 2019 24 272 59 121 189 762
Septembre 2019 25 386 54 141 376 708
2019-09-01 1 9 2 105 6 240
2019-09-02 2 23 0 99 4 858
2019-09-03 0 2 3 113 5 936
2019-09-04 1 23 3 106 6 478
2019-09-05 1 13 2 101 4 820
2019-09-06 0 19 1 107 6 729
2019-09-07 1 7 1 101 5 312
2019-09-08 2 30 3 112 7 337
2019-09-09 0 11 1 102 5 572
2019-09-10 0 11 0 100 7 902
2019-09-11 0 19 4 106 7 070
2019-09-12 0 9 1 93 5 907
2019-09-13 0 17 1 104 5 766
2019-09-14 1 20 1 106 8 380
2019-09-15 1 21 1 99 8 495
2019-09-16 0 10 3 103 4 957
2019-09-17 0 4 3 101 4 911
2019-09-18 1 7 3 123 86 629
2019-09-19 0 12 0 124 109 596
2019-09-20 0 17 2 141 8 262
2019-09-21 0 10 0 140 7 838
2019-09-22 1 6 2 112 6 839
2019-09-23 6 10 3 97 8 328
2019-09-24 1 9 3 94 5 944
2019-09-25 0 8 0 97 4 935
2019-09-26 0 12 4 97 6 015
2019-09-27 2 11 0 99 7 899
2019-09-28 3 18 4 99 4 761
2019-09-29 1 9 2 92 4 842
2019-09-30 0 9 1 98 8 150
Août 2019 22 257 31 122 225 760
Juillet 2019 24 281 62 149 190 301
Juin 2019 11 171 3 112 246 519
Mai 2019 23 311 10 167 218 891
Avril 2019 21 294 9 174 311 459
Mars 2019 22 372 16 142 344 146
2019-03-01 0 30 0 102 3 220
2019-03-02 0 23 0 102 3 097
2019-03-03 0 4 0 99 2 763
2019-03-04 0 5 0 105 2 518
2019-03-05 0 11 0 99 3 314
2019-03-06 0 11 1 97 5 983
2019-03-07 1 6 2 102 6 254
2019-03-08 1 24 1 100 9 845
2019-03-09 1 11 1 104 9 974
2019-03-10 0 18 0 109 12 925
2019-03-11 3 18 1 124 22 284
2019-03-12 0 14 0 120 15 724
2019-03-13 1 23 1 125 13 212
2019-03-14 0 7 1 132 13 861
2019-03-15 2 17 1 112 12 323
2019-03-16 0 6 1 135 11 288
2019-03-17 0 6 0 129 10 798
2019-03-18 1 8 0 122 10 562
2019-03-19 1 7 0 126 9 470
2019-03-20 1 16 1 122 10 084
2019-03-21 1 12 1 128 13 887
2019-03-22 0 4 0 129 13 984
2019-03-23 2 9 0 123 14 498
2019-03-24 4 13 0 129 36 957
2019-03-25 0 14 0 134 17 651
2019-03-26 1 11 1 126 9 572
2019-03-27 0 4 0 56 8 627
2019-03-28 0 14 1 142 8 864
2019-03-29 0 5 0 126 11 607
2019-03-30 0 2 0 131 10 223
2019-03-31 2 19 2 129 8 777
Février 2019 18 288 4 110 142 132
Janvier 2019 22 375 6 113 187 470
2019-01-01 1 15 2 48 3 038
2019-01-02 1 15 0 46 2 001
2019-01-03 0 6 0 21 1 368
2019-01-04 1 11 0 45 1 552
2019-01-05 0 6 0 53 3 362
2019-01-06 0 8 0 63 4 705
2019-01-07 0 9 0 55 12 308
2019-01-08 2 13 0 53 18 061
2019-01-09 1 10 1 113 10 965
2019-01-10 1 29 1 113 14 217
2019-01-11 0 13 0 109 30 587
2019-01-12 0 7 0 109 8 140
2019-01-13 1 10 0 107 5 158
2019-01-14 4 31 0 103 4 347
2019-01-15 1 10 0 105 3 882
2019-01-16 1 13 0 111 3 382
2019-01-17 1 18 1 80 2 837
2019-01-18 0 8 0 101 2 592
2019-01-19 0 12 1 113 3 015
2019-01-20 0 16 0 100 2 773
2019-01-21 1 13 0 104 3 262
2019-01-22 0 4 0 103 2 681
2019-01-23 0 18 0 100 2 956
2019-01-24 0 14 0 103 4 754
2019-01-25 1 3 0 104 2 549
2019-01-26 4 22 0 106 3 353
2019-01-27 0 4 0 102 3 126
2019-01-28 0 7 0 108 3 010
2019-01-29 0 8 0 102 5 181
2019-01-30 0 6 0 100 9 811
2019-01-31 1 16 0 89 8 497
* 2018 338 6 176 81 641 2 624 946
Décembre 2018 43 306 8 253 421 582
Novembre 2018 26 467 9 641 383 363
2018-11-01 1 9 1 134 8 941
2018-11-02 0 12 0 138 13 320
2018-11-03 1 7 1 144 15 011
2018-11-04 5 36 0 176 20 866
2018-11-05 2 19 0 163 16 221
2018-11-06 1 18 1 130 15 015
2018-11-07 0 18 0 239 17 530
2018-11-08 1 13 1 200 11 015
2018-11-09 0 18 0 265 17 559
2018-11-10 1 13 1 262 23 662
2018-11-11 0 10 0 161 21 706
2018-11-12 1 22 0 274 33 147
2018-11-13 0 25 0 425 19 047
2018-11-14 1 18 1 550 12 156
2018-11-15 1 8 1 641 16 863
2018-11-16 1 14 0 168 16 611
2018-11-17 0 5 1 577 19 696
2018-11-18 0 5 0 184 9 470
2018-11-19 1 10 1 373 15 763
2018-11-20 1 23 0 257 11 354
2018-11-21 2 8 0 110 5 798
2018-11-22 0 9 0 89 5 367
2018-11-23 1 22 0 92 4 528
2018-11-24 1 21 0 30 2 309
2018-11-25 2 13 0 43 4 520
2018-11-26 2 26 0 34 2 339
2018-11-27 0 21 0 42 2 307
2018-11-28 0 20 0 116 5 597
2018-11-29 0 9 0 117 6 218
2018-11-30 0 15 0 109 9 427
Octobre 2018 34 527 6 321 248 725
2018-10-01 0 16 0 104 3 916
2018-10-02 2 19 0 102 5 182
2018-10-03 0 11 0 124 6 042
2018-10-04 1 8 0 89 7 397
2018-10-05 0 1 1 89 4 993
2018-10-06 1 10 0 123 5 725
2018-10-07 1 14 1 93 5 795
2018-10-08 2 17 0 102 5 479
2018-10-09 1 29 1 113 7 032
2018-10-10 1 19 0 139 7 853
2018-10-11 2 19 0 126 7 235
2018-10-12 1 28 0 140 7 594
2018-10-13 0 12 0 135 7 817
2018-10-14 5 26 0 146 7 428
2018-10-15 2 51 0 149 7 144
2018-10-16 0 22 0 102 6 306
2018-10-17 4 25 0 121 6 311
2018-10-18 2 14 0 122 6 339
2018-10-19 0 10 0 136 5 992
2018-10-20 0 8 0 115 6 644
2018-10-21 0 15 1 129 6 181
2018-10-22 0 11 0 112 5 588
2018-10-23 1 9 0 127 15 828
2018-10-24 1 15 1 135 23 623
2018-10-25 0 8 0 321 10 005
2018-10-26 2 34 1 145 7 134
2018-10-27 2 19 0 252 10 544
2018-10-28 0 9 0 276 9 982
2018-10-29 1 15 0 269 10 127
2018-10-30 2 21 0 207 9 059
2018-10-31 0 12 0 255 12 430
Septembre 2018 34 641 10 127 216 306
Août 2018 32 583 16 101 188 648
Juillet 2018 21 386 3 104 182 475
Juin 2018 31 442 3 110 213 303
Mai 2018 21 422 4 107 174 393
Avril 2018 25 564 5 104 159 849
Mars 2018 20 634 4 96 152 933
2018-03-01 0 7 0 20 8 226
2018-03-02 0 23 0 16 1 189
2018-03-03 0 28 0 19 1 566
2018-03-04 1 44 0 21 1 915
2018-03-05 0 11 0 17 1 328
2018-03-06 0 10 0 75 1 912
2018-03-07 1 21 0 89 4 461
2018-03-08 0 18 0 83 4 381
2018-03-09 0 14 0 94 4 761
2018-03-10 0 22 0 87 5 080
2018-03-11 1 24 0 90 6 619
2018-03-12 4 69 2 79 4 642
2018-03-13 2 36 1 88 5 239
2018-03-14 1 25 0 90 4 987
2018-03-15 2 9 0 81 4 572
2018-03-16 0 7 0 77 4 268
2018-03-17 0 9 0 81 4 271
2018-03-18 0 13 0 91 4 435
2018-03-19 2 12 0 79 4 301
2018-03-20 0 30 0 87 4 317
2018-03-21 0 7 0 86 4 027
2018-03-22 1 19 0 84 4 514
2018-03-23 0 14 0 91 4 486
2018-03-24 0 6 0 81 4 292
2018-03-25 0 11 0 78 4 516
2018-03-26 2 16 0 86 4 584
2018-03-27 0 7 0 80 4 375
2018-03-28 0 22 0 80 4 705
2018-03-29 0 27 0 79 4 483
2018-03-30 1 40 1 82 4 671
2018-03-31 2 33 0 96 25 810
Février 2018 25 631 7 93 121 912
Janvier 2018 26 573 6 94 161 457
* 2017 346 6 100 56 180 1 675 168
Décembre 2017 37 499 6 91 136 063
Novembre 2017 37 675 6 93 169 670
Octobre 2017 15 426 2 93 151 449
2017-10-01 1 16 0 71 4 799
2017-10-02 0 9 0 83 4 529
2017-10-03 0 8 0 80 5 172
2017-10-04 0 7 0 86 4 363
2017-10-05 0 8 0 89 5 192
2017-10-06 0 6 0 85 4 811
2017-10-07 0 7 0 78 4 810
2017-10-08 8 24 0 81 5 378
2017-10-09 0 17 0 93 4 986
2017-10-10 1 21 0 74 4 632
2017-10-11 1 25 0 67 4 328
2017-10-12 0 8 1 76 4 661
2017-10-13 0 13 0 67 3 429
2017-10-14 0 14 0 67 24 056
2017-10-15 1 17 0 67 3 713
2017-10-16 0 18 0 72 3 995
2017-10-17 2 7 0 74 3 028
2017-10-18 0 19 0 70 3 977
2017-10-19 0 20 0 71 3 742
2017-10-20 0 23 0 70 4 235
2017-10-21 0 9 1 69 3 775
2017-10-22 0 12 0 74 3 882
2017-10-23 1 15 0 72 3 999
2017-10-24 0 18 0 83 3 576
2017-10-25 0 13 0 78 4 578
2017-10-26 0 24 0 83 4 418
2017-10-27 0 16 0 83 4 128
2017-10-28 0 16 0 79 3 950
2017-10-29 0 8 0 79 4 420
2017-10-30 0 7 0 76 3 927
2017-10-31 0 1 0 73 2 960
Septembre 2017 28 548 5 94 135 543
Août 2017 29 384 6 99 148 097
2017-08-01 0 9 0 68 3 543
2017-08-02 0 12 1 66 2 932
2017-08-03 0 7 0 64 3 100
2017-08-04 1 8 0 83 3 375
2017-08-05 1 8 0 81 4 004
2017-08-06 2 6 1 80 3 731
2017-08-07 6 14 1 85 3 850
2017-08-08 2 3 0 76 4 998
2017-08-09 0 13 1 72 4 403
2017-08-10 3 6 0 75 3 696
2017-08-11 0 6 0 74 2 479
2017-08-12 0 7 0 81 4 043
2017-08-13 0 9 0 73 4 128
2017-08-14 0 14 0 73 3 594
2017-08-15 2 7 0 71 3 835
2017-08-16 1 11 0 70 3 779
2017-08-17 0 13 0 82 3 941
2017-08-18 0 7 0 82 3 689
2017-08-19 0 8 0 19 1 560
2017-08-20 0 11 0 85 2 353
2017-08-21 0 15 0 99 4 536
2017-08-22 2 37 0 91 4 987
2017-08-23 0 13 0 81 4 153
2017-08-24 5 24 0 87 5 297
2017-08-25 1 31 0 79 4 356
2017-08-26 0 12 0 85 4 846
2017-08-27 1 23 0 83 6 285
2017-08-28 0 21 0 98 6 070
2017-08-29 0 5 0 85 5 964
2017-08-30 1 14 1 79 25 924
2017-08-31 1 10 1 82 4 646
Juillet 2017 25 490 5 87 176 472
Juin 2017 33 603 4 89 156 248
Mai 2017 26 470 2 99 181 189
Avril 2017 31 490 5 180 139 896
Mars 2017 27 432 3 119 90 981
Février 2017 31 587 7 87 74 924
Janvier 2017 27 496 5 80 114 636
* 2016 389 7 721 79 245 2 075 605
Décembre 2016 34 533 2 170 118 206
Novembre 2016 34 586 6 245 122 991
Octobre 2016 43 726 7 191 160 217
Septembre 2016 26 657 9 85 157 449
2016-09-01 0 6 0 74 4 766
2016-09-02 0 11 0 20 3 957
2016-09-03 2 15 0 24 5 392
2016-09-04 2 24 2 27 6 016
2016-09-05 1 48 0 60 6 378
2016-09-06 0 19 0 64 16 148
2016-09-07 0 25 0 29 5 865
2016-09-08 0 8 1 28 2 521
2016-09-09 2 25 2 66 4 139
2016-09-10 1 13 0 57 3 591
2016-09-11 0 20 0 52 3 703
2016-09-12 5 46 2 56 3 958
2016-09-13 2 32 0 56 4 310
2016-09-14 1 36 0 57 3 961
2016-09-15 0 20 0 54 3 639
2016-09-16 0 8 0 85 5 882
2016-09-17 1 17 1 63 4 479
2016-09-18 1 37 0 55 4 935
2016-09-19 1 18 0 55 4 541
2016-09-20 2 43 0 53 6 073
2016-09-21 0 23 0 43 3 742
2016-09-22 1 18 1 53 4 611
2016-09-23 0 15 0 70 4 243
2016-09-24 0 18 0 70 5 283
2016-09-25 2 19 0 59 15 111
2016-09-26 0 12 0 62 4 202
2016-09-27 1 10 0 55 4 151
2016-09-28 1 28 0 55 4 096
2016-09-29 0 24 0 58 3 581
2016-09-30 0 19 0 55 4 175
Août 2016 31 721 9 114 169 873
2016-08-01 0 34 0 56 15 771
2016-08-02 1 24 0 49 4 965
2016-08-03 0 15 0 54 4 374
2016-08-04 0 39 0 46 4 547
2016-08-05 1 46 1 42 4 740
2016-08-06 0 18 0 49 4 109
2016-08-07 9 43 2 54 3 599
2016-08-08 1 25 0 48 3 592
2016-08-09 0 15 0 49 3 725
2016-08-10 0 19 0 45 4 264
2016-08-11 1 9 0 44 3 140
2016-08-12 1 24 0 45 4 209
2016-08-13 0 13 2 48 4 850
2016-08-14 2 31 2 46 4 216
2016-08-15 0 27 0 25 3 114
2016-08-16 1 23 0 30 2 754
2016-08-17 1 30 0 30 3 105
2016-08-18 0 16 0 60 3 872
2016-08-19 0 27 0 58 4 655
2016-08-20 1 23 0 72 4 528
2016-08-21 0 6 0 64 4 231
2016-08-22 0 19 0 114 6 004
2016-08-23 1 25 0 103 5 871
2016-08-24 1 24 0 59 3 064
2016-08-25 0 7 0 90 16 785
2016-08-26 1 16 0 69 17 998
2016-08-27 0 12 0 72 4 035
2016-08-28 7 42 1 73 3 576
2016-08-29 0 27 0 77 5 294
2016-08-30 1 27 1 71 5 843
2016-08-31 1 15 0 69 5 043
Juillet 2016 19 513 3 58 166 690
2016-07-01 0 12 0 45 7 913
2016-07-02 1 14 0 53 5 460
2016-07-03 0 12 0 43 5 640
2016-07-04 0 21 0 51 5 125
2016-07-05 0 19 0 53 19 299
2016-07-06 1 26 0 47 4 798
2016-07-07 1 14 1 45 5 226
2016-07-08 0 17 0 29 4 376
2016-07-09 2 9 1 33 3 581
2016-07-10 0 17 0 30 3 953
2016-07-11 0 19 0 33 3 994
2016-07-12 0 6 0 34 4 003
2016-07-13 0 6 0 29 3 703
2016-07-14 0 9 0 36 3 393
2016-07-15 0 12 0 46 3 985
2016-07-16 0 8 0 49 3 862
2016-07-17 1 15 0 46 6 224
2016-07-18 3 49 0 48 9 490
2016-07-19 5 19 0 58 12 133
2016-07-20 1 27 0 53 6 421
2016-07-21 0 15 0 44 4 051
2016-07-22 1 24 0 35 2 980
2016-07-23 0 9 0 46 2 786
2016-07-24 0 5 0 50 3 313
2016-07-25 0 18 0 48 3 778
2016-07-26 1 16 0 49 3 234
2016-07-27 1 13 1 45 3 378
2016-07-28 0 28 0 42 4 140
2016-07-29 0 14 0 54 4 296
2016-07-30 0 16 0 49 6 668
2016-07-31 1 24 0 56 5 487
Juin 2016 30 565 5 53 211 715
Mai 2016 40 1 116 8 94 166 514
Avril 2016 27 529 7 65 155 208
Mars 2016 35 513 11 88 224 056
Février 2016 35 640 4 96 192 454
Janvier 2016 35 622 8 95 230 232
* 2015 373 6 684 79 100 1 549 803
Décembre 2015 28 499 7 68 140 303
2015-12-01 0 25 0 16 2 350
2015-12-02 0 13 0 16 2 355
2015-12-03 1 32 1 21 3 677
2015-12-04 0 20 0 17 2 064
2015-12-05 0 16 1 21 3 894
2015-12-06 0 13 0 20 5 745
2015-12-07 0 6 0 35 3 625
2015-12-08 1 17 0 32 4 443
2015-12-09 0 4 0 35 7 622
2015-12-10 1 6 0 32 5 400
2015-12-11 0 19 0 35 19 913
2015-12-12 1 21 1 25 3 299
2015-12-13 7 38 0 30 4 377
2015-12-14 0 26 0 27 3 642
2015-12-15 2 29 1 32 5 486
2015-12-16 4 39 0 37 6 111
2015-12-17 0 14 0 18 3 269
2015-12-18 0 17 0 13 2 944
2015-12-19 1 16 0 18 3 387
2015-12-20 0 14 0 17 3 339
2015-12-21 0 2 0 14 2 174
2015-12-22 0 0 1 21 3 147
2015-12-23 2 10 0 14 2 552
2015-12-24 1 11 0 43 2 912
2015-12-25 2 20 0 13 2 346
2015-12-26 0 10 0 12 2 235
2015-12-27 1 11 0 10 6 406
2015-12-28 3 29 1 65 5 360
2015-12-29 0 2 1 53 4 266
2015-12-30 1 12 0 68 5 376
2015-12-31 0 7 0 57 6 587
Novembre 2015 40 724 5 35 146 607
2015-11-01 1 18 0 27 4 452
2015-11-02 0 9 0 24 5 327
2015-11-03 1 7 0 22 11 240
2015-11-04 0 0 0 18 11 102
2015-11-05 0 4 0 24 12 062
2015-11-06 1 19 0 20 6 702
2015-11-07 7 38 0 21 3 288
2015-11-08 0 25 0 20 5 256
2015-11-09 0 32 0 22 3 384
2015-11-10 0 11 0 21 2 914
2015-11-11 0 8 0 22 2 384
2015-11-12 0 24 0 30 2 736
2015-11-13 0 32 0 20 2 709
2015-11-14 2 21 1 24 3 133
2015-11-15 2 28 0 21 18 160
2015-11-16 0 28 0 22 4 664
2015-11-17 0 22 0 35 3 181
2015-11-18 6 48 1 20 3 200
2015-11-19 1 28 0 29 3 049
2015-11-20 10 39 2 20 2 941
2015-11-21 1 10 0 17 3 452
2015-11-22 0 33 0 18 4 436
2015-11-23 1 21 1 32 4 524
2015-11-24 1 28 0 23 5 198
2015-11-25 1 23 0 19 4 024
2015-11-26 1 29 0 15 2 788
2015-11-27 0 39 0 16 3 090
2015-11-28 1 29 0 20 2 052
2015-11-29 1 29 0 18 2 495
2015-11-30 2 42 0 24 2 664
Octobre 2015 32 760 10 84 227 528
2015-10-01 1 18 0 82 8 525
2015-10-02 1 10 0 80 4 829
2015-10-03 0 7 0 13 2 541
2015-10-04 0 7 0 74 5 391
2015-10-05 3 45 2 39 10 558
2015-10-06 4 42 1 84 20 928
2015-10-07 0 30 0 79 21 334
2015-10-08 0 12 0 39 12 723
2015-10-09 1 14 2 22 4 574
2015-10-10 0 8 0 80 5 752
2015-10-11 1 36 0 23 4 613
2015-10-12 3 25 0 23 3 928
2015-10-13 0 35 0 20 3 575
2015-10-14 3 25 0 79 9 055
2015-10-15 1 32 0 22 7 638
2015-10-16 1 43 0 82 8 658
2015-10-17 0 34 0 62 6 865
2015-10-18 2 31 0 66 5 798
2015-10-19 0 21 0 73 5 660
2015-10-20 1 29 0 23 4 062
2015-10-21 0 22 0 28 20 035
2015-10-22 1 22 1 27 6 384
2015-10-23 2 15 0 25 6 058
2015-10-24 2 27 2 26 4 323
2015-10-25 0 11 0 32 4 915
2015-10-26 2 22 0 31 4 192
2015-10-27 0 26 1 41 5 915
2015-10-28 1 28 0 41 5 310
2015-10-29 2 29 0 21 4 485
2015-10-30 0 38 0 23 4 216
2015-10-31 0 16 1 27 4 688
Septembre 2015 40 948 13 100 169 012
2015-09-01 3 40 0 23 4 812
2015-09-02 0 52 2 72 5 791
2015-09-03 0 21 0 16 4 722
2015-09-04 2 20 1 67 4 506
2015-09-05 2 40 2 79 8 360
2015-09-06 1 58 0 21 4 206
2015-09-07 0 27 1 17 3 924
2015-09-08 6 44 0 100 9 516
2015-09-09 1 26 0 74 6 952
2015-09-10 0 37 1 73 5 976
2015-09-11 0 43 0 80 7 212
2015-09-12 0 23 0 81 5 584
2015-09-13 0 30 0 74 5 189
2015-09-14 1 25 1 19 3 457
2015-09-15 2 18 0 20 2 649
2015-09-16 1 23 0 62 4 565
2015-09-17 0 10 0 59 5 055
2015-09-18 0 36 0 72 4 251
2015-09-19 1 36 0 73 4 774
2015-09-20 1 41 1 69 4 977
2015-09-21 1 23 0 75 11 093
2015-09-22 6 28 1 22 3 585
2015-09-23 0 33 0 65 5 593
2015-09-24 1 42 0 71 5 489
2015-09-25 3 24 0 17 3 955
2015-09-26 2 25 1 77 5 774
2015-09-27 3 47 1 88 6 711
2015-09-28 2 34 0 79 7 065
2015-09-29 0 6 0 27 5 105
2015-09-30 1 36 1 85 8 164
Août 2015 36 566 12 61 119 954
Juillet 2015 29 462 7 31 89 666
Juin 2015 24 453 5 30 112 317
2015-06-01 1 21 1 25 4 795
2015-06-02 0 13 0 13 1 648
2015-06-03 1 16 1 14 4 304
2015-06-04 1 25 0 14 3 105
2015-06-05 0 20 0 15 1 807
2015-06-06 1 21 0 17 2 532
2015-06-07 4 18 0 16 1 899
2015-06-08 0 12 0 14 2 343
2015-06-09 1 10 0 18 2 371
2015-06-10 0 10 0 20 7 902
2015-06-11 1 19 0 11 4 495
2015-06-12 0 7 0 13 1 558
2015-06-13 1 6 0 13 1 791
2015-06-14 0 11 0 14 2 048
2015-06-15 3 13 0 19 1 997
2015-06-16 0 10 0 18 1 599
2015-06-17 1 17 0 17 2 018
2015-06-18 0 13 0 12 1 641
2015-06-19 0 7 0 15 1 876
2015-06-20 0 9 0 12 1 521
2015-06-21 0 10 0 15 1 695
2015-06-22 1 19 0 16 2 896
2015-06-23 1 23 1 22 11 490
2015-06-24 2 23 0 30 13 135
2015-06-25 0 11 0 18 9 448
2015-06-26 3 23 0 20 11 127
2015-06-27 0 7 0 17 2 548
2015-06-28 0 5 0 13 2 651
2015-06-29 2 29 2 18 2 252
2015-06-30 0 25 0 19 1 825
Mai 2015 30 390 2 24 73 874
Avril 2015 29 408 4 25 95 371
Mars 2015 38 550 7 37 130 116
Février 2015 15 434 2 24 123 854
Janvier 2015 32 490 5 44 121 201
2015-01-01 2 23 0 19 3 144
2015-01-02 0 16 0 15 4 048
2015-01-03 0 15 0 22 3 759
2015-01-04 0 4 0 19 3 288
2015-01-05 2 20 0 15 4 716
2015-01-06 0 5 0 22 4 665
2015-01-07 7 37 1 20 4 235
2015-01-08 0 17 0 18 5 827
2015-01-09 2 10 0 21 3 910
2015-01-10 0 16 0 18 3 671
2015-01-11 0 8 0 20 4 832
2015-01-12 4 17 0 21 3 973
2015-01-13 2 14 0 14 2 410
2015-01-14 0 16 0 15 3 118
2015-01-15 2 38 1 17 3 532
2015-01-16 0 23 0 18 3 617
2015-01-17 0 13 0 17 2 699
2015-01-18 2 13 0 18 3 678
2015-01-19 5 16 0 16 3 676
2015-01-20 0 12 1 19 3 624
2015-01-21 1 12 0 20 2 778
2015-01-22 0 8 1 16 6 250
2015-01-23 1 18 0 18 2 801
2015-01-24 0 14 0 44 3 349
2015-01-25 0 8 0 18 6 193
2015-01-26 0 25 0 21 4 761
2015-01-27 1 23 1 18 6 578
2015-01-28 0 4 0 16 2 032
2015-01-29 0 15 0 15 3 742
2015-01-30 0 16 0 13 2 970
2015-01-31 1 14 0 14 3 325
* 2014 428 7 364 58 58 2 478 164
Décembre 2014 24 360 4 33 191 610
2014-12-01 0 4 0 21 6 641
2014-12-02 2 17 0 26 7 244
2014-12-03 0 9 0 31 7 910
2014-12-04 1 11 0 26 8 107
2014-12-05 1 10 1 23 7 074
2014-12-06 0 6 0 33 8 321
2014-12-07 1 18 0 20 5 632
2014-12-08 1 17 0 24 7 793
2014-12-09 1 19 0 21 5 936
2014-12-10 0 8 0 17 5 092
2014-12-11 0 6 0 20 5 467
2014-12-12 0 6 0 27 7 318
2014-12-13 1 17 0 23 10 029
2014-12-14 1 6 0 24 6 467
2014-12-15 1 12 0 23 8 102
2014-12-16 0 12 0 20 6 013
2014-12-17 0 3 0 22 6 999
2014-12-18 0 5 1 22 6 892
2014-12-19 1 10 0 21 7 099
2014-12-20 1 13 0 19 7 148
2014-12-21 0 2 0 27 4 864
2014-12-22 0 2 0 23 5 428
2014-12-23 2 12 0 20 5 923
2014-12-24 1 11 0 21 4 951
2014-12-25 0 8 1 19 4 762
2014-12-26 6 28 0 17 4 609
2014-12-27 0 21 0 24 6 807
2014-12-28 3 51 1 19 4 079
2014-12-29 0 9 0 17 3 335
2014-12-30 0 3 0 16 2 402
2014-12-31 0 4 0 18 3 166
Novembre 2014 37 572 7 46 525 858
2014-11-01 0 10 0 39 31 767
2014-11-02 4 28 1 38 30 905
2014-11-03 2 15 1 46 35 171
2014-11-04 0 10 0 45 33 110
2014-11-05 1 19 0 42 33 257
2014-11-06 1 32 0 37 27 962
2014-11-07 3 33 0 40 33 652
2014-11-08 2 9 0 45 28 231
2014-11-09 1 24 0 32 22 476
2014-11-10 0 24 0 45 25 456
2014-11-11 0 29 0 35 24 461
2014-11-12 0 13 0 34 21 316
2014-11-13 0 10 0 27 13 857
2014-11-14 0 11 0 28 11 982
2014-11-15 2 21 0 34 10 235
2014-11-16 1 26 0 27 8 102
2014-11-17 2 16 0 25 10 338
2014-11-18 1 10 0 25 9 298
2014-11-19 0 8 0 25 10 140
2014-11-20 4 18 0 24 9 332
2014-11-21 0 12 1 26 11 050
2014-11-22 0 14 1 26 8 358
2014-11-23 2 15 1 22 6 229
2014-11-24 4 35 0 26 9 487
2014-11-25 0 14 0 30 14 490
2014-11-26 3 20 1 25 10 319
2014-11-27 0 31 0 28 9 632
2014-11-28 2 22 0 24 7 672
2014-11-29 2 27 1 25 9 524
2014-11-30 0 16 0 22 8 049
Octobre 2014 45 928 8 58 364 915
Septembre 2014 24 549 8 32 162 413
Août 2014 17 251 4 27 191 624
2014-08-01 0 11 0 17 4 869
2014-08-02 2 8 0 20 4 008
2014-08-03 5 21 0 22 3 930
2014-08-04 0 13 0 27 7 210
2014-08-05 2 12 1 24 7 177
2014-08-06 0 16 0 27 6 701
2014-08-07 0 7 0 25 3 965
2014-08-08 0 13 0 27 6 141
2014-08-09 0 2 0 21 4 733
2014-08-10 1 21 1 23 5 317
2014-08-11 0 0 0 22 5 671
2014-08-12 0 7 0 24 6 599
2014-08-13 0 1 0 15 4 833
2014-08-14 0 1 1 17 5 819
2014-08-15 0 0 0 18 6 630
2014-08-16 1 9 0 21 6 366
2014-08-17 0 11 0 19 6 206
2014-08-18 0 3 0 19 7 614
2014-08-19 1 2 0 25 6 728
2014-08-20 1 6 0 27 8 084
2014-08-21 0 8 0 27 9 580
2014-08-22 1 6 0 25 9 362
2014-08-23 0 7 0 22 6 382
2014-08-24 2 6 0 22 5 960
2014-08-25 0 5 0 25 5 413
2014-08-26 0 9 0 24 6 547
2014-08-27 0 5 0 23 5 741
2014-08-28 0 6 0 21 6 634
2014-08-29 1 9 1 25 5 677
2014-08-30 0 3 0 22 6 121
2014-08-31 0 23 0 23 5 606
Juillet 2014 25 369 3 30 236 312
Juin 2014 29 602 3 32 220 918
Mai 2014 34 842 6 29 157 174
2014-05-01 2 54 0 15 2 998
2014-05-02 0 19 1 14 4 416
2014-05-03 1 14 0 12 2 336
2014-05-04 1 28 0 18 11 859
2014-05-05 0 15 0 14 1 396
2014-05-06 0 11 1 22 4 797
2014-05-07 0 9 0 18 3 829
2014-05-08 2 27 0 22 3 479
2014-05-09 2 33 0 14 3 211
2014-05-10 0 18 0 16 3 340
2014-05-11 2 36 1 19 4 081
2014-05-12 3 64 0 20 4 198
2014-05-13 2 32 0 19 3 565
2014-05-14 0 20 0 26 2 887
2014-05-15 2 23 0 22 3 577
2014-05-16 0 11 0 22 3 219
2014-05-17 2 16 0 22 3 583
2014-05-18 1 16 1 19 4 010
2014-05-19 3 51 1 22 4 120
2014-05-20 1 19 0 20 8 095
2014-05-21 0 28 0 18 6 029
2014-05-22 1 42 0 20 3 420
2014-05-23 1 46 0 26 7 952
2014-05-24 0 31 0 27 3 774
2014-05-25 2 60 0 25 7 974
2014-05-26 2 56 0 24 11 539
2014-05-27 1 15 0 22 8 592
2014-05-28 1 16 0 21 5 451
2014-05-29 0 9 0 21 5 330
2014-05-30 2 12 1 29 7 112
2014-05-31 0 11 0 25 7 005
Avril 2014 45 662 1 25 104 486
Mars 2014 32 595 4 26 120 439
Février 2014 24 660 5 28 102 996
2014-02-01 1 22 0 23 2 869
2014-02-02 1 33 0 22 3 362
2014-02-03 1 60 0 23 3 816
2014-02-04 0 33 0 20 3 763
2014-02-05 0 40 0 18 3 526
2014-02-06 1 21 1 15 3 424
2014-02-07 1 22 0 16 2 254
2014-02-08 2 20 0 13 1 959
2014-02-09 2 42 0 14 4 999
2014-02-10 0 32 0 19 2 823
2014-02-11 3 37 0 14 2 859
2014-02-12 0 24 0 15 2 417
2014-02-13 0 16 1 15 2 924
2014-02-14 0 11 0 14 2 482
2014-02-15 1 16 1 18 3 069
2014-02-16 0 13 0 24 3 497
2014-02-17 0 5 0 20 3 495
2014-02-18 0 9 0 19 3 924
2014-02-19 3 21 0 25 5 311
2014-02-20 0 58 0 24 6 280
2014-02-21 0 22 0 22 4 472
2014-02-22 0 14 1 22 3 599
2014-02-23 1 23 1 21 5 173
2014-02-24 0 14 0 26 3 800
2014-02-25 0 9 0 28 6 099
2014-02-26 3 10 0 19 3 668
2014-02-27 1 17 0 24 3 604
2014-02-28 3 16 0 22 3 528
Janvier 2014 92 974 5 33 99 419
* 2013 408 8 887 76 89 1 597 727
Décembre 2013 36 785 2 79 132 305
2013-12-01 3 40 0 21 5 124
2013-12-02 0 18 0 23 3 630
2013-12-03 1 22 0 18 2 691
2013-12-04 0 21 0 20 2 917
2013-12-05 2 34 1 74 3 596
2013-12-06 0 14 0 29 4 033
2013-12-07 0 11 0 21 3 141
2013-12-08 2 50 0 20 11 319
2013-12-09 3 47 0 79 15 790
2013-12-10 0 42 0 40 6 438
2013-12-11 0 29 0 23 4 171
2013-12-12 1 32 0 22 3 225
2013-12-13 1 21 0 26 3 543
2013-12-14 0 11 0 23 4 807
2013-12-15 0 20 0 17 3 540
2013-12-16 5 50 0 22 4 009
2013-12-17 2 27 0 23 3 856
2013-12-18 1 53 0 23 4 339
2013-12-19 0 23 0 18 3 138
2013-12-20 0 5 0 16 1 779
2013-12-21 1 26 0 22 3 370
2013-12-22 3 27 0 22 4 250
2013-12-23 0 7 1 16 2 431
2013-12-24 1 16 0 14 2 139
2013-12-25 1 20 0 14 2 448
2013-12-26 0 14 0 17 3 918
2013-12-27 0 31 0 27 3 690
2013-12-28 2 32 0 22 4 302
2013-12-29 2 16 0 19 3 362
2013-12-30 3 13 0 15 3 871
2013-12-31 2 13 0 19 3 438
Novembre 2013 36 751 8 29 141 119
2013-11-01 4 33 2 29 4 258
2013-11-02 1 10 0 18 3 364
2013-11-03 0 18 0 17 4 043
2013-11-04 0 16 0 16 2 787
2013-11-05 0 12 0 19 4 349
2013-11-06 0 14 0 25 12 178
2013-11-07 0 30 0 23 5 858
2013-11-08 3 22 0 16 3 999
2013-11-09 0 10 0 19 4 800
2013-11-10 1 16 0 17 4 744
2013-11-11 2 14 0 13 3 463
2013-11-12 1 32 0 14 3 326
2013-11-13 0 12 0 17 2 912
2013-11-14 2 27 0 16 2 991
2013-11-15 0 17 0 15 2 883
2013-11-16 2 18 0 25 3 279
2013-11-17 0 13 0 28 5 091
2013-11-18 2 20 1 20 3 269
2013-11-19 3 25 1 16 4 107
2013-11-20 5 53 0 25 4 556
2013-11-21 0 33 0 26 4 719
2013-11-22 2 35 1 24 5 798
2013-11-23 0 39 0 21 13 713
2013-11-24 1 32 0 29 8 700
2013-11-25 0 14 0 27 3 856
2013-11-26 2 46 0 19 3 287
2013-11-27 1 46 0 19 4 243
2013-11-28 2 37 2 18 3 613
2013-11-29 2 30 1 17 3 673
2013-11-30 0 27 0 18 3 260
Octobre 2013 37 683 10 26 116 570
Septembre 2013 33 723 15 29 160 779
Août 2013 20 356 4 30 113 960
2013-08-01 0 1 0 17 6 165
2013-08-02 2 10 1 30 3 363
2013-08-03 0 4 0 18 3 801
2013-08-04 1 6 0 15 4 126
2013-08-05 2 13 0 22 3 858
2013-08-06 0 8 0 17 5 385
2013-08-07 0 5 0 17 3 665
2013-08-08 0 10 0 18 3 057
2013-08-09 0 6 0 18 4 374
2013-08-10 1 2 0 16 4 563
2013-08-11 0 9 0 17 4 114
2013-08-12 0 1 0 20 4 489
2013-08-13 1 17 0 19 4 829
2013-08-14 0 7 0 15 2 333
2013-08-15 0 2 0 14 2 977
2013-08-16 0 1 0 15 4 833
2013-08-17 0 2 0 13 3 056
2013-08-18 0 7 0 13 2 784
2013-08-19 1 3 0 12 3 124
2013-08-20 1 8 0 13 2 097
2013-08-21 0 10 0 14 2 180
2013-08-22 0 9 0 15 2 515
2013-08-23 0 13 1 23 3 032
2013-08-24 2 21 0 14 2 563
2013-08-25 1 8 0 14 2 604
2013-08-26 1 13 0 14 1 978
2013-08-27 1 22 0 18 2 519
2013-08-28 0 30 0 14 3 594
2013-08-29 0 26 1 17 2 491
2013-08-30 2 41 1 20 8 436
2013-08-31 4 41 0 22 5 055
Juillet 2013 21 331 2 24 120 164
2013-07-01 0 9 0 24 4 330
2013-07-02 1 11 0 16 2 693
2013-07-03 4 28 0 23 4 775
2013-07-04 2 26 0 16 4 174
2013-07-05 0 16 0 20 4 074
2013-07-06 0 8 0 21 4 135
2013-07-07 1 6 0 17 2 726
2013-07-08 1 11 0 17 4 747
2013-07-09 0 9 0 18 3 831
2013-07-10 0 5 0 16 3 040
2013-07-11 1 6 0 19 4 713
2013-07-12 1 16 0 19 4 099
2013-07-13 0 3 0 14 4 400
2013-07-14 0 2 0 15 3 941
2013-07-15 0 2 0 15 3 367
2013-07-16 1 4 0 18 4 261
2013-07-17 2 23 0 22 3 788
2013-07-18 0 16 0 15 3 415
2013-07-19 1 2 0 16 2 111
2013-07-20 1 7 0 17 1 889
2013-07-21 0 5 0 18 4 035
2013-07-22 2 21 0 15 10 438
2013-07-23 0 9 1 18 4 311
2013-07-24 1 12 0 15 4 353
2013-07-25 1 15 0 24 3 021
2013-07-26 0 10 0 20 4 122
2013-07-27 1 12 0 12 2 914
2013-07-28 0 7 0 17 2 977
2013-07-29 0 13 0 19 2 352
2013-07-30 0 9 1 17 2 615
2013-07-31 0 8 0 18 4 517
Juin 2013 40 731 5 34 119 512
Mai 2013 34 881 3 47 157 484
Avril 2013 38 799 8 33 124 279
2013-04-01 4 20 0 24 3 359
2013-04-02 1 47 0 21 4 467
2013-04-03 0 45 0 23 3 233
2013-04-04 0 33 0 16 2 834
2013-04-05 0 17 0 19 3 016
2013-04-06 2 17 1 21 4 302
2013-04-07 1 58 0 33 4 201
2013-04-08 0 22 0 17 4 107
2013-04-09 3 42 0 18 3 737
2013-04-10 1 19 0 16 3 054
2013-04-11 2 20 0 18 2 700
2013-04-12 2 22 1 17 2 910
2013-04-13 0 8 2 17 2 288
2013-04-14 0 22 0 16 2 273
2013-04-15 0 18 0 20 2 553
2013-04-16 2 35 2 23 4 161
2013-04-17 3 14 0 15 2 830
2013-04-18 0 20 0 21 2 765
2013-04-19 0 13 0 22 3 929
2013-04-20 1 9 0 17 4 630
2013-04-21 3 33 0 15 4 446
2013-04-22 5 26 1 18 5 097
2013-04-23 1 41 0 26 5 957
2013-04-24 2 35 0 21 7 277
2013-04-25 1 26 0 22 3 866
2013-04-26 1 35 0 22 3 466
2013-04-27 1 41 1 19 7 601
2013-04-28 1 28 0 26 7 931
2013-04-29 1 26 0 19 6 992
2013-04-30 0 7 0 18 4 297
Mars 2013 40 1 111 9 62 147 762
2013-03-01 0 12 0 51 6 549
2013-03-02 1 13 0 37 4 543
2013-03-03 2 43 0 37 3 584
2013-03-04 0 47 0 48 5 492
2013-03-05 1 28 2 43 10 235
2013-03-06 0 23 1 23 5 242
2013-03-07 1 25 0 17 2 873
2013-03-08 2 34 0 22 3 808
2013-03-09 2 35 1 15 3 643
2013-03-10 4 41 0 43 3 470
2013-03-11 1 26 0 30 4 367
2013-03-12 0 34 1 21 4 299
2013-03-13 3 59 0 24 4 126
2013-03-14 3 38 0 18 4 289
2013-03-15 1 63 1 18 4 539
2013-03-16 0 26 0 16 3 540
2013-03-17 1 34 0 18 3 678
2013-03-18 1 70 0 62 5 572
2013-03-19 4 21 1 27 3 636
2013-03-20 1 43 1 33 6 483
2013-03-21 2 43 0 23 5 533
2013-03-22 0 29 0 24 4 112
2013-03-23 3 17 0 20 3 638
2013-03-24 3 68 0 23 4 766
2013-03-25 0 41 1 22 8 947
2013-03-26 3 50 0 20 6 590
2013-03-27 0 39 0 27 3 966
2013-03-28 0 37 0 24 5 372
2013-03-29 0 42 0 19 5 271
2013-03-30 1 17 0 14 2 181
2013-03-31 0 13 0 18 3 418
Février 2013 32 838 5 79 125 299
Janvier 2013 41 898 5 89 138 494
2013-01-01 3 41 0 18 3 294
2013-01-02 0 40 0 32 4 176
2013-01-03 0 19 1 15 3 604
2013-01-04 1 25 1 37 4 312
2013-01-05 3 14 0 15 4 484
2013-01-06 4 45 0 18 3 481
2013-01-07 2 32 0 18 3 613
2013-01-08 2 17 0 22 3 963
2013-01-09 0 19 0 24 3 801
2013-01-10 1 31 0 18 3 318
2013-01-11 0 14 0 17 2 898
2013-01-12 1 23 0 41 3 129
2013-01-13 1 41 0 36 3 414
2013-01-14 1 28 0 41 3 865
2013-01-15 5 56 0 20 4 435
2013-01-16 1 33 0 39 4 394
2013-01-17 1 50 0 38 4 104
2013-01-18 0 17 0 31 4 143
2013-01-19 2 23 0 17 3 723
2013-01-20 2 24 0 22 4 177
2013-01-21 1 31 0 24 5 005
2013-01-22 0 15 1 19 3 874
2013-01-23 0 34 0 16 3 985
2013-01-24 4 34 0 21 4 457
2013-01-25 0 23 0 14 4 216
2013-01-26 0 13 0 63 7 035
2013-01-27 1 23 1 89 8 106
2013-01-28 0 38 0 55 6 946
2013-01-29 0 29 0 52 5 581
2013-01-30 1 30 1 54 6 998
2013-01-31 4 36 0 39 5 963
* 2012 446 10 690 67 157 1 274 957
Décembre 2012 57 1 411 4 45 150 137
Novembre 2012 46 1 137 8 25 112 399
Octobre 2012 45 1 068 7 25 80 970
Septembre 2012 37 876 11 38 107 023
Août 2012 30 595 5 41 95 032
Juillet 2012 24 563 2 157 78 638
2012-07-01 2 33 0 20 3 383
2012-07-02 0 39 0 16 3 176
2012-07-03 1 42 0 21 2 769
2012-07-04 0 21 0 18 2 427
2012-07-05 0 28 0 19 2 191
2012-07-06 0 29 0 15 2 402
2012-07-07 2 10 0 25 4 165
2012-07-08 0 13 1 17 1 741
2012-07-09 2 18 0 14 3 585
2012-07-10 2 24 0 14 2 317
2012-07-11 0 39 0 22 3 204
2012-07-12 0 32 0 14 1 963
2012-07-13 1 28 0 16 1 977
2012-07-14 0 17 0 16 1 834
2012-07-15 3 22 0 30 3 446
2012-07-16 1 11 0 26 3 044
2012-07-17 0 5 0 13 1 616
2012-07-18 2 14 0 15 1 754
2012-07-19 0 21 0 13 2 427
2012-07-20 0 15 0 18 1 824
2012-07-21 0 10 0 10 1 292
2012-07-22 0 6 0 18 1 434
2012-07-23 1 7 0 17 1 873
2012-07-24 2 8 0 157 7 112
2012-07-25 2 13 1 13 1 667
2012-07-26 1 6 0 14 1 478
2012-07-27 1 14 0 16 2 610
2012-07-28 0 6 0 17 2 026
2012-07-29 0 11 0 16 2 266
2012-07-30 1 11 0 15 2 745
2012-07-31 0 10 0 17 2 890
Juin 2012 39 984 10 33 88 620
Mai 2012 22 703 5 26 77 701
Avril 2012 33 714 4 33 95 151
Mars 2012 35 977 5 48 160 160
Février 2012 34 704 5 33 117 877
Janvier 2012 44 958 1 30 111 249
2012-01-01 3 33 0 15 2 419
2012-01-02 3 54 0 22 4 785
2012-01-03 2 41 1 24 4 216
2012-01-04 0 23 0 20 4 356
2012-01-05 3 33 0 23 4 494
2012-01-06 3 53 0 30 4 247
2012-01-07 0 24 0 20 3 112
2012-01-08 3 21 0 19 3 575
2012-01-09 3 40 0 24 5 659
2012-01-10 2 39 0 24 2 961
2012-01-11 3 38 0 20 4 809
2012-01-12 0 9 0 24 3 309
2012-01-13 1 33 0 22 5 053
2012-01-14 1 20 0 18 2 639
2012-01-15 3 42 0 22 2 705
2012-01-16 2 59 0 26 4 036
2012-01-17 2 34 0 20 4 879
2012-01-18 1 23 0 19 2 689
2012-01-19 1 25 0 23 3 208
2012-01-20 1 37 0 21 4 457
2012-01-21 0 12 0 20 2 455
2012-01-22 1 33 0 22 5 353
2012-01-23 1 33 0 19 2 704
2012-01-24 1 34 0 23 5 671
2012-01-25 1 23 0 22 2 765
2012-01-26 0 17 0 15 2 256
2012-01-27 1 21 0 15 2 639
2012-01-28 0 37 0 14 2 277
2012-01-29 0 9 0 19 2 598
2012-01-30 1 19 0 18 2 202
2012-01-31 1 39 0 17 2 721
* 2011 822 21 877 118 48 1 861 895
Décembre 2011 68 1 315 7 36 141 929
Novembre 2011 94 1 539 4 36 150 015
2011-11-01 3 44 0 23 4 947
2011-11-02 6 67 0 20 4 287
2011-11-03 4 65 0 24 4 618
2011-11-04 10 91 0 19 4 838
2011-11-05 6 39 0 21 3 164
2011-11-06 4 77 0 21 4 609
2011-11-07 6 77 1 20 4 952
2011-11-08 2 48 0 19 3 243
2011-11-09 2 36 0 22 4 723
2011-11-10 4 55 0 19 3 721
2011-11-11 2 37 0 20 3 239
2011-11-12 2 15 0 21 4 391
2011-11-13 1 21 0 27 4 446
2011-11-14 4 60 0 27 4 759
2011-11-15 5 58 0 25 7 805
2011-11-16 2 50 0 23 3 902
2011-11-17 2 49 0 18 3 185
2011-11-18 1 67 0 26 6 226
2011-11-19 0 38 0 26 6 646
2011-11-20 2 61 1 36 8 056
2011-11-21 1 45 0 25 6 692
2011-11-22 1 31 0 30 6 080
2011-11-23 4 50 0 23 4 242
2011-11-24 1 40 0 25 5 667
2011-11-25 2 45 0 24 3 992
2011-11-26 2 43 1 19 3 693
2011-11-27 2 65 1 26 5 393
2011-11-28 4 77 0 31 5 999
2011-11-29 2 39 0 33 5 234
2011-11-30 7 49 0 29 7 266
Octobre 2011 81 1 597 13 41 169 207
2011-10-01 1 13 0 28 6 004
2011-10-02 1 20 0 20 5 506
2011-10-03 0 91 0 25 7 611
2011-10-04 6 70 3 24 4 912
2011-10-05 5 74 0 23 4 729
2011-10-06 4 81 0 21 5 207
2011-10-07 1 60 0 17 5 128
2011-10-08 3 34 2 18 4 442
2011-10-09 13 67 0 20 6 218
2011-10-10 4 60 0 16 6 297
2011-10-11 1 71 0 21 6 462
2011-10-12 1 31 0 27 5 896
2011-10-13 1 44 0 16 5 869
2011-10-14 1 47 0 19 7 736
2011-10-15 1 22 0 29 4 683
2011-10-16 0 19 0 20 3 832
2011-10-17 10 74 0 20 4 981
2011-10-18 3 56 1 17 5 476
2011-10-19 3 76 0 25 6 145
2011-10-20 3 70 1 19 5 110
2011-10-21 1 34 0 16 4 516
2011-10-22 0 30 1 21 3 856
2011-10-23 3 45 2 41 4 932
2011-10-24 1 49 0 19 4 749
2011-10-25 4 50 0 28 5 342
2011-10-26 1 58 0 27 5 178
2011-10-27 6 118 2 26 7 117
2011-10-28 0 27 0 19 5 048
2011-10-29 1 33 0 21 7 438
2011-10-30 0 18 1 17 4 059
2011-10-31 2 55 0 20 4 728
Septembre 2011 96 1 991 19 24 158 540
Août 2011 68 1 372 16 48 135 201
Juillet 2011 57 1 156 10 30 112 626
Juin 2011 40 1 214 6 31 149 115
2011-06-01 1 32 0 29 5 456
2011-06-02 2 29 0 26 4 171
2011-06-03 1 35 0 19 4 043
2011-06-04 0 20 0 19 4 950
2011-06-05 0 28 2 15 4 322
2011-06-06 3 69 0 17 3 738
2011-06-07 2 48 0 31 4 173
2011-06-08 0 31 0 21 4 038
2011-06-09 0 22 0 28 4 286
2011-06-10 1 43 0 27 5 000
2011-06-11 1 31 0 29 4 509
2011-06-12 2 47 1 24 5 476
2011-06-13 0 28 0 21 5 276
2011-06-14 5 69 0 26 5 102
2011-06-15 0 58 0 17 4 739
2011-06-16 1 56 0 22 7 003
2011-06-17 0 46 0 19 4 024
2011-06-18 0 14 1 26 4 210
2011-06-19 0 27 0 23 4 877
2011-06-20 3 40 0 25 5 373
2011-06-21 2 59 0 22 5 456
2011-06-22 4 76 1 25 4 738
2011-06-23 1 47 0 24 5 119
2011-06-24 2 52 0 20 4 688
2011-06-25 0 18 0 18 4 641
2011-06-26 4 29 0 22 8 721
2011-06-27 1 50 1 21 4 259
2011-06-28 0 40 0 18 4 018
2011-06-29 1 31 0 19 7 555
2011-06-30 3 39 0 19 5 154
Mai 2011 64 1 997 8 39 181 997
Avril 2011 46 1 637 9 38 176 986
Mars 2011 54 2 388 6 31 211 307
Février 2011 59 2 656 5 46 128 248
2011-02-01 3 136 0 46 5 654
2011-02-02 3 121 0 25 5 448
2011-02-03 2 68 0 30 4 573
2011-02-04 2 95 0 22 4 221
2011-02-05 4 54 0 26 3 574
2011-02-06 0 36 0 27 3 427
2011-02-07 5 100 0 30 4 483
2011-02-08 4 139 0 24 4 710
2011-02-09 1 103 0 23 5 418
2011-02-10 1 100 0 22 4 527
2011-02-11 3 116 2 41 4 732
2011-02-12 2 58 0 37 3 823
2011-02-13 1 74 0 36 4 349
2011-02-14 0 118 0 40 4 898
2011-02-15 3 100 0 38 4 914
2011-02-16 0 74 0 32 4 322
2011-02-17 3 82 0 29 4 503
2011-02-18 4 181 0 41 5 880
2011-02-19 0 34 0 22 3 355
2011-02-20 2 50 0 37 3 284
2011-02-21 1 151 1 35 5 505
2011-02-22 1 148 1 35 6 218
2011-02-23 5 132 0 43 5 855
2011-02-24 4 167 0 22 5 961
2011-02-25 0 48 0 19 3 745
2011-02-26 0 17 1 17 2 862
2011-02-27 1 19 0 19 2 743
2011-02-28 4 135 0 22 5 264
Janvier 2011 95 3 015 15 44 146 724
* 2010 615 23 079 70 91 1 409 620
Décembre 2010 54 2 635 5 43 199 984
Novembre 2010 59 2 475 6 49 127 779
Octobre 2010 56 2 811 15 58 134 942
Septembre 2010 53 1 528 8 29 95 249
Août 2010 32 1 287 6 33 89 617
2010-08-01 2 44 0 14 2 375
2010-08-02 1 72 0 19 3 526
2010-08-03 2 81 0 33 3 516
2010-08-04 0 87 0 21 2 742
2010-08-05 0 80 0 17 3 348
2010-08-06 2 149 0 20 3 946
2010-08-07 1 29 1 17 2 159
2010-08-08 1 27 0 16 2 369
2010-08-09 3 52 0 20 2 680
2010-08-10 0 52 0 15 3 070
2010-08-11 2 38 0 21 4 295
2010-08-12 1 36 0 18 2 513
2010-08-13 0 15 0 15 2 131
2010-08-14 0 10 1 8 6 123
2010-08-15 0 5 1 10 2 220
2010-08-16 2 21 0 12 2 503
2010-08-17 0 12 0 13 2 212
2010-08-18 0 17 0 12 2 490
2010-08-19 0 24 0 11 2 741
2010-08-20 2 30 0 22 3 123
2010-08-21 1 20 0 13 2 077
2010-08-22 2 35 0 12 1 743
2010-08-23 3 43 0 16 2 815
2010-08-24 1 41 0 17 3 088
2010-08-25 0 47 0 14 2 711
2010-08-26 1 61 0 16 2 920
2010-08-27 2 37 0 15 3 274
2010-08-28 0 20 0 9 1 779
2010-08-29 0 16 1 14 2 423
2010-08-30 1 32 0 17 3 130
2010-08-31 2 54 2 15 3 575
Juillet 2010 34 1 637 5 32 97 290
Juin 2010 46 2 137 3 28 109 648
Mai 2010 50 1 497 6 28 99 050
Avril 2010 45 1 888 3 26 102 219
Mars 2010 53 1 534 2 46 118 201
Février 2010 65 1 574 4 91 117 274
Janvier 2010 68 2 076 7 43 118 367
* 2009 752 28 223 96 159 970 278
Décembre 2009 39 2 001 5 54 122 418
2009-12-01 2 99 0 21 3 827
2009-12-02 0 91 0 20 3 658
2009-12-03 3 128 0 22 4 078
2009-12-04 2 111 0 23 3 795
2009-12-05 1 47 1 17 2 228
2009-12-06 2 48 0 17 3 135
2009-12-07 1 116 1 27 3 862
2009-12-08 1 58 0 19 4 184
2009-12-09 1 94 0 33 3 923
2009-12-10 0 72 0 38 3 566
2009-12-11 1 46 0 25 2 665
2009-12-12 1 38 0 29 2 266
2009-12-13 0 42 0 28 1 478
2009-12-14 2 86 0 26 2 993
2009-12-15 2 128 0 32 3 520
2009-12-16 3 89 0 25 3 587
2009-12-17 2 106 0 31 3 888
2009-12-18 0 129 0 54 6 524
2009-12-19 0 43 0 14 2 643
2009-12-20 1 41 0 28 7 360
2009-12-21 2 76 0 28 8 634
2009-12-22 5 114 1 31 4 041
2009-12-23 0 33 0 39 3 096
2009-12-24 1 34 0 13 2 752
2009-12-25 0 7 0 32 3 780
2009-12-26 2 26 0 21 2 640
2009-12-27 0 33 1 10 2 292
2009-12-28 2 14 1 27 10 310
2009-12-29 0 18 0 15 5 672
2009-12-30 1 16 0 14 2 982
2009-12-31 1 18 0 11 3 039
Novembre 2009 59 3 138 6 38 117 432
Octobre 2009 67 3 218 11 18 122 232
2009-10-01 0 76 0 11 2 516
2009-10-02 1 64 0 10 2 579
2009-10-03 2 101 0 11 2 851
2009-10-04 1 126 0 12 3 520
2009-10-05 4 87 0 15 3 448
2009-10-06 5 84 0 13 3 357
2009-10-07 3 120 1 11 3 765
2009-10-08 3 194 0 14 4 579
2009-10-09 0 85 0 11 2 918
2009-10-10 3 88 1 11 2 279
2009-10-11 4 158 1 12 4 547
2009-10-12 3 160 0 13 4 399
2009-10-13 4 115 1 16 3 779
2009-10-14 1 84 0 13 3 531
2009-10-15 0 71 0 14 3 213
2009-10-16 0 67 0 17 11 597
2009-10-17 1 50 0 17 3 148
2009-10-18 0 67 1 16 4 508
2009-10-19 4 165 1 18 5 455
2009-10-20 0 85 0 14 3 066
2009-10-21 3 105 1 12 4 822
2009-10-22 2 99 1 13 3 611
2009-10-23 2 108 0 15 3 666
2009-10-24 1 67 1 12 2 884
2009-10-25 1 79 0 15 3 733
2009-10-26 3 100 1 13 3 989
2009-10-27 5 143 0 15 4 733
2009-10-28 0 60 1 12 2 921
2009-10-29 1 120 0 14 3 964
2009-10-30 4 193 0 17 4 507
2009-10-31 6 97 0 15 4 347
Septembre 2009 73 2 730 14 159 92 082
Août 2009 47 1 405 8 15 61 919
Juillet 2009 68 1 737 11 21 67 267
Juin 2009 63 2 759 4 37 72 789
2009-06-01 2 158 0 10 2 944
2009-06-02 2 130 0 11 2 903
2009-06-03 1 94 0 10 2 141
2009-06-04 1 73 0 10 2 152
2009-06-05 0 73 0 9 1 915
2009-06-06 4 73 0 9 1 406
2009-06-07 7 84 0 12 2 068
2009-06-08 0 91 0 10 2 235
2009-06-09 2 105 0 14 2 686
2009-06-10 1 63 0 10 1 917
2009-06-11 2 98 1 10 2 352
2009-06-12 1 110 0 13 2 659
2009-06-13 1 24 0 12 1 572
2009-06-14 1 96 0 11 2 188
2009-06-15 5 109 0 15 2 673
2009-06-16 0 91 0 14 2 713
2009-06-17 1 59 0 29 2 049
2009-06-18 2 72 0 0 2 339
2009-06-19 2 95 0 13 2 336
2009-06-20 5 74 0 13 1 883
2009-06-21 2 74 0 11 2 259
2009-06-22 4 77 1 37 3 040
2009-06-23 2 92 0 11 2 504
2009-06-24 1 56 0 13 1 784
2009-06-25 3 93 1 12 2 373
2009-06-26 2 121 0 10 3 083
2009-06-27 1 74 0 12 1 964
2009-06-28 3 98 0 10 2 698
2009-06-29 2 160 0 13 3 452
2009-06-30 3 142 1 13 4 501
Mai 2009 46 2 166 6 16 66 386
2009-05-01 1 129 0 10 2 835
2009-05-02 1 42 1 14 1 469
2009-05-03 0 68 0 13 1 801
2009-05-04 3 101 1 16 2 844
2009-05-05 2 74 1 13 2 433
2009-05-06 4 156 0 15 3 705
2009-05-07 1 47 0 12 1 946
2009-05-08 1 54 1 9 1 538
2009-05-09 2 46 0 10 1 306
2009-05-10 2 58 0 12 1 788
2009-05-11 0 77 0 13 2 263
2009-05-12 1 49 1 11 2 134
2009-05-13 0 31 0 11 1 993
2009-05-14 0 65 0 12 2 003
2009-05-15 0 75 0 11 2 324
2009-05-16 2 36 0 8 1 545
2009-05-17 1 52 1 13 2 284
2009-05-18 0 40 0 11 2 729
2009-05-19 1 60 0 11 2 402
2009-05-20 0 90 0 10 2 220
2009-05-21 5 54 0 10 1 843
2009-05-22 0 36 0 10 1 520
2009-05-23 0 38 0 8 1 804
2009-05-24 5 74 0 10 2 169
2009-05-25 6 80 0 13 2 515
2009-05-26 1 105 0 13 2 637
2009-05-27 4 128 0 14 3 088
2009-05-28 0 85 0 9 1 806
2009-05-29 0 82 0 11 2 137
2009-05-30 0 48 0 8 1 394
2009-05-31 3 86 0 13 1 911
Avril 2009 101 2 850 6 16 73 303
2009-04-01 3 166 1 14 3 669
2009-04-02 1 193 0 11 4 316
2009-04-03 1 125 1 11 2 873
2009-04-04 0 28 1 16 1 192
2009-04-05 0 23 0 9 1 660
2009-04-06 2 85 0 10 2 211
2009-04-07 5 106 0 14 2 655
2009-04-08 0 63 0 10 2 215
2009-04-09 2 119 0 14 2 827
2009-04-10 2 67 0 12 3 232
2009-04-11 0 27 0 9 1 101
2009-04-12 3 47 0 9 1 431
2009-04-13 3 98 1 9 2 738
2009-04-14 4 78 0 10 2 286
2009-04-15 3 108 0 10 2 870
2009-04-16 3 81 0 11 2 229
2009-04-17 0 92 0 12 2 534
2009-04-18 2 24 0 6 1 168
2009-04-19 2 68 0 10 1 951
2009-04-20 8 173 0 11 3 260
2009-04-21 4 205 0 15 3 878
2009-04-22 1 65 0 9 2 011
2009-04-23 0 115 0 11 2 136
2009-04-24 32 152 0 13 3 302
2009-04-25 2 37 1 12 1 453
2009-04-26 5 110 0 9 2 132
2009-04-27 0 112 0 12 2 669
2009-04-28 3 105 0 11 2 478
2009-04-29 4 103 1 12 2 554
2009-04-30 6 75 0 11 2 272
Mars 2009 80 3 538 7 17 83 610
Février 2009 57 1 586 6 16 50 521
Janvier 2009 52 1 095 12 10 40 319
2009-01-01 2 21 0 5 768
2009-01-02 5 32 2 7 1 486
2009-01-03 1 17 0 6 910
2009-01-04 0 22 0 9 1 555
2009-01-05 0 28 0 7 972
2009-01-06 1 17 1 7 734
2009-01-07 4 49 0 7 1 072
2009-01-08 1 33 0 8 1 218
2009-01-09 1 36 0 7 1 148
2009-01-10 1 19 0 9 1 249
2009-01-11 2 35 0 8 1 138
2009-01-12 1 21 2 8 1 085
2009-01-13 1 22 0 9 926
2009-01-14 1 38 1 6 1 577
2009-01-15 2 24 0 6 1 142
2009-01-16 1 22 0 9 1 101
2009-01-17 1 19 0 6 937
2009-01-18 1 19 0 8 1 091
2009-01-19 0 8 1 7 864
2009-01-20 2 22 1 10 1 014
2009-01-21 3 89 0 10 2 235
2009-01-22 0 50 0 8 1 433
2009-01-23 0 34 0 8 1 281
2009-01-24 2 18 0 7 902
2009-01-25 5 71 2 9 2 028
2009-01-26 1 85 0 10 2 278
2009-01-27 4 48 1 8 1 679
2009-01-28 3 72 0 8 1 963
2009-01-29 3 63 0 8 1 669
2009-01-30 1 38 0 9 1 324
2009-01-31 2 23 1 9 1 540
* 2008 334 4 655 56 26 234 055
Décembre 2008 36 663 7 12 28 104
2008-12-01 3 30 0 10 1 312
2008-12-02 0 30 0 7 1 279
2008-12-03 3 41 0 12 1 017
2008-12-04 2 33 0 7 1 133
2008-12-05 2 40 1 7 1 117
2008-12-06 0 7 0 5 831
2008-12-07 1 21 0 5 1 053
2008-12-08 1 30 0 8 1 116
2008-12-09 2 39 0 8 1 045
2008-12-10 0 13 0 6 555
2008-12-11 1 29 2 8 1 021
2008-12-12 0 29 1 9 1 230
2008-12-13 2 32 0 11 1 196
2008-12-14 3 17 1 8 973
2008-12-15 1 21 0 9 868
2008-12-16 3 51 1 9 1 403
2008-12-17 0 19 1 7 950
2008-12-18 1 7 0 10 889
2008-12-19 0 26 0 8 1 051
2008-12-20 2 19 0 8 964
2008-12-21 2 20 0 5 722
2008-12-22 0 10 0 5 689
2008-12-23 0 22 0 8 909
2008-12-24 0 8 0 4 427
2008-12-25 0 11 0 5 344
2008-12-26 2 17 0 6 566
2008-12-27 0 2 0 5 628
2008-12-28 1 8 0 5 684
2008-12-29 1 9 0 5 880
2008-12-30 1 8 0 5 575
2008-12-31 2 14 0 6 677
Novembre 2008 51 1 090 9 10 35 948
Octobre 2008 50 609 5 10 26 582
Septembre 2008 40 619 5 10 24 365
2008-09-01 0 6 0 7 539
2008-09-02 2 16 0 0 576
2008-09-03 1 13 0 5 857
2008-09-04 1 9 0 6 627
2008-09-05 1 15 0 7 829
2008-09-06 1 7 0 6 671
2008-09-07 1 17 0 4 1 181
2008-09-08 5 29 0 6 1 459
2008-09-09 0 2 0 5 741
2008-09-10 1 9 0 5 540
2008-09-11 0 7 0 6 574
2008-09-12 2 27 0 7 779
2008-09-13 0 11 0 6 602
2008-09-14 0 5 0 6 478
2008-09-15 6 28 1 6 990
2008-09-16 1 15 0 6 639
2008-09-17 0 26 1 7 1 061
2008-09-18 1 14 0 6 720
2008-09-19 1 16 0 6 620
2008-09-20 0 9 0 5 403
2008-09-21 2 17 2 6 630
2008-09-22 0 32 0 7 887
2008-09-23 1 22 0 10 697
2008-09-24 3 54 0 10 1 244
2008-09-25 3 27 0 7 873
2008-09-26 1 23 0 6 770
2008-09-27 0 21 0 8 670
2008-09-28 2 35 0 7 911
2008-09-29 2 57 0 6 1 560
2008-09-30 2 50 1 9 1 237
Août 2008 28 252 6 9 21 916
Juillet 2008 20 256 5 7 16 733
Juin 2008 17 363 6 26 18 903
Mai 2008 17 180 2 10 13 320
2008-05-01 0 2 0 3 298
2008-05-02 0 7 0 3 301
2008-05-03 0 2 0 3 238
2008-05-04 0 2 0 4 802
2008-05-05 1 4 0 3 331
2008-05-06 0 6 0 0 392
2008-05-07 0 2 0 4 358
2008-05-08 0 1 0 2 277
2008-05-09 0 5 1 4 290
2008-05-10 0 2 0 3 288
2008-05-11 1 2 0 2 369
2008-05-12 1 6 0 5 569
2008-05-13 1 10 0 5 595
2008-05-14 0 16 1 4 626
2008-05-15 3 13 0 0 742
2008-05-16 0 7 0 5 526
2008-05-17 1 7 0 5 478
2008-05-18 0 3 0 4 760
2008-05-19 0 4 0 4 495
2008-05-20 1 5 0 3 347
2008-05-21 0 12 0 4 459
2008-05-22 0 4 0 5 505
2008-05-23 0 3 0 3 360
2008-05-24 1 8 0 4 308
2008-05-25 0 5 0 2 261
2008-05-26 0 7 0 3 260
2008-05-27 0 3 0 10 398
2008-05-28 3 8 0 7 411
2008-05-29 0 5 0 5 350
2008-05-30 1 9 0 0 574
2008-05-31 3 10 0 5 352
Avril 2008 16 146 3 8 16 063
Mars 2008 18 158 1 9 12 835
Février 2008 19 155 2 9 9 679
2008-02-01 1 10 0 4 268
2008-02-02 0 7 0 0 349
2008-02-03 0 1 0 5 248
2008-02-04 6 11 0 4 440
2008-02-05 0 11 0 0 497
2008-02-06 0 3 0 5 239
2008-02-07 0 5 0 0 333
2008-02-08 2 3 0 4 257
2008-02-09 0 3 0 5 219
2008-02-10 0 0 0 3 182
2008-02-11 1 8 0 6 281
2008-02-12 0 4 0 4 281
2008-02-13 0 2 0 4 191
2008-02-14 0 4 0 3 211
2008-02-15 0 8 0 5 258
2008-02-16 1 3 0 4 214
2008-02-17 0 8 1 4 460
2008-02-18 2 6 0 4 401
2008-02-19 1 4 0 5 515
2008-02-20 1 7 0 4 467
2008-02-21 1 3 0 5 489
2008-02-22 1 9 0 4 359
2008-02-23 0 2 0 4 179
2008-02-24 1 3 0 3 277
2008-02-25 0 4 0 4 516
2008-02-26 0 12 0 5 456
2008-02-27 0 5 1 5 449
2008-02-28 0 3 0 3 330
2008-02-29 1 6 0 9 313
Janvier 2008 22 164 5 7 9 607
* 2007 276 2 246 55 9 102 999
Décembre 2007 21 167 5 8 17 081
Novembre 2007 20 168 3 6 8 467
Octobre 2007 21 147 4 5 8 193
Septembre 2007 22 183 4 9 9 896
Août 2007 23 226 2 6 9 096
Juillet 2007 18 127 1 4 10 165
2007-07-01 0 3 0 4 345
2007-07-02 0 3 0 4 509
2007-07-03 1 4 0 3 302
2007-07-04 1 6 0 0 431
2007-07-05 0 1 0 3 348
2007-07-06 0 6 0 3 356
2007-07-07 1 6 0 3 274
2007-07-08 0 4 0 4 314
2007-07-09 0 5 0 0 411
2007-07-10 0 2 0 4 320
2007-07-11 0 0 0 4 238
2007-07-12 2 2 0 3 264
2007-07-13 1 4 0 0 268
2007-07-14 2 3 0 2 203
2007-07-15 0 0 0 0 245
2007-07-16 2 10 1 4 539
2007-07-17 0 5 0 4 322
2007-07-18 0 5 0 4 436
2007-07-19 0 10 0 0 392
2007-07-20 1 4 0 3 235
2007-07-21 1 2 0 2 215
2007-07-22 0 2 0 0 250
2007-07-23 3 6 0 3 602
2007-07-24 1 8 0 3 356
2007-07-25 0 7 0 4 392
2007-07-26 0 2 0 3 281
2007-07-27 0 9 0 4 327
2007-07-28 0 0 0 3 246
2007-07-29 1 3 0 2 219
2007-07-30 1 2 0 4 276
2007-07-31 0 3 0 4 249
Juin 2007 25 309 2 6 13 196
Mai 2007 30 315 8 7 11 830
Avril 2007 44 428 13 9 13 382
Mars 2007 52 176 13 4 1 693